Weather History for Cando, ND

Change the Weather History Date:

Wednesday, November 21, 2012

  Actual Average (KDVL) Record (KDVL)
Temperature  
Mean Temperature 32 °F -  
Max Temperature 35 °F 31 °F 55 °F (2006)
Min Temperature 28 °F 17 °F -11 °F (1996)
Degree Days  
Heating Degree Days 34    
Moisture  
Dew Point 33 °F    
Average Humidity 99    
Maximum Humidity 100    
Minimum Humidity 87    
Precipitation  
Precipitation 0.00 in - - ()
Sea Level Pressure  
Sea Level Pressure 29.72 in    
Wind  
Wind Speed 7 mph (ENE)    
Max Wind Speed 16 mph    
Max Gust Speed 22 mph    
Visibility 8 miles    
Events Fog    
Averages and records for this station are not official NWS values.
T = Trace of Precipitation, MM = Missing Value Source: NWS Daily Summary

Daily Weather History Graph

Daily Weather History Graph

Search for Another Location

Airport:

Trip Planner

Search our weather history database for the weather conditions in past years. The results will help you decide how hot, cold, wet, or windy it might be!

Date:

Astronomy

Nov. 21, 2012 Rise Set
Actual Time 7:54 AM CST 4:50 PM CST
Civil Twilight 7:19 AM CST 5:25 PM CST
Nautical Twilight 6:40 AM CST 6:04 PM CST
Astronomical Twilight 6:03 AM CST 6:41 PM CST
Moon 1:35 PM CST (11/21) 12:45 AM CST (11/21)
Length of Visible Light 10h 06m
Length of Day
8h 56m
First Quarter, 62% of the Moon is Illuminated
Nov 21
First Quarter
Nov 28
Full
Dec 6
Last Quarter
Dec 13
New
Dec 19
First Quarter

Hourly Weather History & Observations

Time (CST) Temp. Windchill Dew Point Humidity Pressure Visibility Wind Dir Wind Speed Gust Speed Precip Events Conditions
12:15 AM 30.2 °F 23.4 °F 30.2 °F 100% 29.84 in 10.0 mi West 6.9 mph - N/A   Clear
12:35 AM 32.0 °F 26.4 °F 32.0 °F 100% 29.85 in 10.0 mi West 5.8 mph - N/A   Clear
12:55 AM 32.0 °F 25.6 °F 32.0 °F 100% 29.84 in 10.0 mi West 6.9 mph - N/A   Clear
1:15 AM 32.0 °F 27.5 °F 32.0 °F 100% 29.84 in 10.0 mi West 4.6 mph - N/A   Clear
1:35 AM 32.0 °F 27.5 °F 32.0 °F 100% 29.84 in 10.0 mi West 4.6 mph - N/A   Clear
1:55 AM 33.8 °F 28.6 °F 33.8 °F 100% 29.83 in 10.0 mi NW 5.8 mph - N/A   Clear
2:15 AM 33.8 °F - 33.8 °F 100% 29.84 in 10.0 mi Calm Calm - N/A   Clear
2:35 AM 32.0 °F - 32.0 °F 100% 29.84 in 10.0 mi Calm Calm - N/A   Partly Cloudy
2:55 AM 32.0 °F - 32.0 °F 100% 29.84 in 10.0 mi Calm Calm - N/A   Partly Cloudy
3:15 AM 33.8 °F 30.8 °F 33.8 °F 100% 29.85 in 10.0 mi NNW 3.5 mph - N/A   Clear
3:35 AM 33.8 °F - 33.8 °F 100% 29.84 in 10.0 mi Calm Calm - N/A   Clear
3:55 AM 33.8 °F - 33.8 °F 100% 29.84 in 10.0 mi Calm Calm - N/A   Clear
4:15 AM 33.8 °F 29.6 °F 33.8 °F 100% 29.84 in 10.0 mi North 4.6 mph - N/A   Clear
4:35 AM 35.6 °F 29.9 °F 35.6 °F 100% 29.84 in 10.0 mi NE 6.9 mph - N/A   Mostly Cloudy
5:15 AM 35.6 °F 29.9 °F 35.6 °F 100% 29.85 in 10.0 mi NE 6.9 mph - N/A   Overcast
5:35 AM 35.6 °F 29.9 °F 33.8 °F 93% 29.84 in 10.0 mi NE 6.9 mph - N/A   Overcast
5:55 AM 35.6 °F 30.7 °F 33.8 °F 93% 29.84 in 10.0 mi East 5.8 mph - N/A   Mostly Cloudy
6:15 AM 32.0 °F 28.7 °F 32.0 °F 100% 29.84 in 10.0 mi SSE 3.5 mph - N/A   Mostly Cloudy
6:35 AM 32.0 °F - 32.0 °F 100% 29.84 in 10.0 mi Calm Calm - N/A   Overcast
6:55 AM 32.0 °F - 32.0 °F 100% 29.85 in 10.0 mi Calm Calm - N/A   Overcast
7:15 AM 32.0 °F - 32.0 °F 100% 29.84 in 10.0 mi Calm Calm - N/A   Overcast
7:35 AM 32.0 °F 27.5 °F 32.0 °F 100% 29.83 in 10.0 mi NE 4.6 mph - N/A   Mostly Cloudy
7:55 AM 30.2 °F 25.4 °F 30.2 °F 100% 29.83 in 7.0 mi NE 4.6 mph - N/A   Mostly Cloudy
8:15 AM 30.2 °F 26.7 °F 30.2 °F 100% 29.82 in 8.0 mi ENE 3.5 mph - N/A   Mostly Cloudy
8:35 AM 32.0 °F 26.4 °F 32.0 °F 100% 29.82 in 10.0 mi ENE 5.8 mph - N/A   Partly Cloudy
8:55 AM 32.0 °F 26.4 °F 32.0 °F 100% 29.81 in 10.0 mi ENE 5.8 mph - N/A   Clear
9:15 AM 35.6 °F 30.7 °F 32.0 °F 87% 29.83 in 10.0 mi ENE 5.8 mph - N/A   Clear
9:35 AM 35.6 °F 27.5 °F 32.0 °F 87% 29.82 in 10.0 mi East 11.5 mph - N/A   Partly Cloudy
9:55 AM 33.8 °F 26.4 °F 32.0 °F 93% 29.82 in 10.0 mi ESE 9.2 mph - N/A   Partly Cloudy
10:15 AM 32.0 °F 24.2 °F 32.0 °F 100% 29.81 in 10.0 mi ESE 9.2 mph - N/A   Partly Cloudy
10:35 AM 33.8 °F 27.0 °F 32.0 °F 93% 29.82 in 10.0 mi ESE 8.1 mph - N/A   Scattered Clouds
10:55 AM 35.6 °F 28.6 °F 32.0 °F 87% 29.81 in 10.0 mi ESE 9.2 mph - N/A   Overcast
11:15 AM 33.8 °F 25.8 °F 32.0 °F 93% 29.80 in 10.0 mi East 10.4 mph - N/A   Overcast
11:35 AM 35.6 °F 28.0 °F 33.8 °F 93% 29.78 in 10.0 mi East 10.4 mph - N/A   Overcast
11:55 AM 33.8 °F 25.8 °F 33.8 °F 100% 29.76 in 10.0 mi ESE 10.4 mph - N/A   Scattered Clouds
12:15 PM 35.6 °F 27.1 °F 33.8 °F 93% 29.75 in 10.0 mi ESE 12.7 mph - N/A   Scattered Clouds
12:35 PM 35.6 °F 27.1 °F 35.6 °F 100% 29.73 in 10.0 mi ESE 12.7 mph - N/A   Partly Cloudy
12:55 PM 35.6 °F 27.5 °F 35.6 °F 100% 29.73 in 10.0 mi ESE 11.5 mph - N/A   Mostly Cloudy
1:15 PM 35.6 °F 28.0 °F 35.6 °F 100% 29.72 in 10.0 mi ESE 10.4 mph - N/A   Overcast
1:35 PM 35.6 °F 31.7 °F 35.6 °F 100% 29.72 in 10.0 mi ESE 4.6 mph - N/A   Overcast
1:55 PM 35.6 °F 29.2 °F 35.6 °F 100% 29.70 in 10.0 mi East 8.1 mph - N/A   Mostly Cloudy
2:15 PM 35.6 °F 28.0 °F 35.6 °F 100% 29.69 in 10.0 mi East 10.4 mph - N/A   Clear
2:35 PM 35.6 °F 28.0 °F 35.6 °F 100% 29.67 in 10.0 mi East 10.4 mph - N/A   Clear
2:55 PM 35.6 °F 27.5 °F 35.6 °F 100% 29.66 in 10.0 mi East 11.5 mph - N/A   Clear
3:15 PM 35.6 °F 28.0 °F 35.6 °F 100% 29.64 in 10.0 mi East 10.4 mph - N/A   Clear
3:35 PM 35.6 °F 29.2 °F 35.6 °F 100% 29.64 in 10.0 mi East 8.1 mph - N/A   Clear
3:55 PM 35.6 °F 29.2 °F 35.6 °F 100% 29.63 in 10.0 mi ESE 8.1 mph - N/A   Clear
4:15 PM 35.6 °F 26.6 °F 35.6 °F 100% 29.62 in 10.0 mi ESE 13.8 mph - N/A   Clear
4:35 PM 35.6 °F 27.5 °F 35.6 °F 100% 29.62 in 10.0 mi ESE 11.5 mph - N/A   Clear
4:55 PM 35.6 °F 26.6 °F 35.6 °F 100% 29.61 in 10.0 mi ESE 13.8 mph - N/A   Clear
5:15 PM 35.6 °F 26.2 °F 35.6 °F 100% 29.60 in 10.0 mi ESE 15.0 mph - N/A   Clear
5:35 PM 33.8 °F 27.0 °F 33.8 °F 100% 29.61 in 10.0 mi ESE 8.1 mph - N/A   Clear
5:55 PM 33.8 °F 25.8 °F 33.8 °F 100% 29.60 in 10.0 mi ESE 10.4 mph - N/A   Clear
6:15 PM 33.8 °F 26.4 °F 33.8 °F 100% 29.61 in 8.0 mi ESE 9.2 mph - N/A   Clear
6:35 PM 32.0 °F 25.6 °F 32.0 °F 100% 29.61 in 8.0 mi East 6.9 mph - N/A   Partly Cloudy
6:55 PM 32.0 °F 24.2 °F 32.0 °F 100% 29.59 in 7.0 mi East 9.2 mph - N/A   Clear
7:15 PM 32.0 °F 24.8 °F 32.0 °F 100% 29.59 in 5.0 mi ESE 8.1 mph - N/A   Clear
7:35 PM 32.0 °F 25.6 °F 32.0 °F 100% 29.58 in 5.0 mi East 6.9 mph - N/A   Clear
7:55 PM 32.0 °F 25.6 °F 32.0 °F 100% 29.59 in 5.0 mi NNE 6.9 mph - N/A   Clear
8:15 PM 32.0 °F 26.4 °F 32.0 °F 100% 29.57 in 5.0 mi ENE 5.8 mph - N/A   Clear
8:35 PM 32.0 °F 25.6 °F 32.0 °F 100% 29.58 in 5.0 mi NNE 6.9 mph - N/A   Clear
8:55 PM 30.2 °F 22.6 °F 30.2 °F 100% 29.58 in 4.0 mi North 8.1 mph - N/A   Clear
9:15 PM 30.2 °F 21.9 °F 30.2 °F 100% 29.58 in 5.0 mi NNE 9.2 mph - N/A   Clear
9:35 PM 28.4 °F 21.2 °F 28.4 °F 100% 29.57 in 5.0 mi NNE 6.9 mph - N/A   Clear
9:55 PM 28.4 °F 20.4 °F 28.4 °F 100% 29.56 in 5.0 mi NNE 8.1 mph - N/A   Clear
10:15 PM 28.4 °F 20.4 °F 28.4 °F 100% 29.57 in 4.0 mi North 8.1 mph - N/A   Clear
10:35 PM 28.4 °F 19.1 °F 28.4 °F 100% 29.58 in 0.5 mi North 10.4 mph - N/A Fog Light Freezing Fog
10:55 PM 28.4 °F 17.0 °F 28.4 °F 100% 29.58 in 0.2 mi North 15.0 mph - N/A Fog Light Freezing Fog
11:15 PM 30.2 °F 20.8 °F 30.2 °F 100% 29.58 in 0.2 mi North 11.5 mph 17.3 mph N/A Fog Light Freezing Fog
11:35 PM 32.0 °F 21.2 °F 32.0 °F 100% 29.57 in 0.2 mi North 16.1 mph 20.7 mph N/A Fog Light Freezing Fog
11:55 PM 32.0 °F 21.2 °F 32.0 °F 100% 29.57 in 0.5 mi North 16.1 mph 21.9 mph N/A Fog Light Freezing Fog